Terminal Aerodrome Forecast
Issued by NWS

Home | Current Version | Previous Version | Text Only | Print | Product List | Glossary On
Versions: 1 2 3 4 5 6 7 8 9 10 11 12 13 14 15 16 17 18 19 20 21 22 23 24 25 26 27 28 29 30 31 32 33 34 35 36 37 38 39 40 41 42 43 44 45 46 47 48 49 50
000
FTUS44 KHGX 251120
TAFIAH
TAF
KIAH 251120Z 2512/2618 15008KT P6SM FEW019 BKN035
     FM251400 15012KT P6SM BKN015
     FM251800 15012KT P6SM SCT025
     FM260100 15011KT P6SM SCT015
     FM260600 16008KT P6SM VCSH SCT007 BKN015
     FM261500 15008KT P6SM VCTS BKN015 BKN030CB=

USA.gov is the U.S. government's official web portal to all federal, state and local government web resources and services.